Regional Weather Roundup
Issued by NWS

Home | Current Version | Previous Version | Graphics & Text | Print | Product List | Glossary On
Versions: 1 2 3 4 5 6 7 8 9 10 11 12 13 14 15 16 17 18 19 20 21 22 23 24 25 26 27 28 29 30 31 32 33 34 35 36 37 38 39 40 41 42 43 44 45 46 47 48 49 50
000
ASUS43 KMKX 281511
RWRWI

WISCONSIN REGIONAL WEATHER ROUNDUP
NATIONAL WEATHER SERVICE MILWAUKEE/SULLIVAN WI
1000 AM CDT TUE JUL 28 2015

NOTE: "FAIR" INDICATES FEW OR NO CLOUDS BELOW 12,000 FEET WITH NO
SIGNIFICANT WEATHER AND/OR OBSTRUCTIONS TO VISIBILITY.

WIZ001-002-006>008-014>016-023>028-281600-
NORTHWEST WISCONSIN

CITY           SKY/WX    TMP DP  RH WIND       PRES   REMARKS
SUPERIOR ARPT  CLOUDY    74  70  86 S15G21    29.71F
ASHLAND        CLOUDY    75  67  76 S13G21    29.85F
HAYWARD        LGT RAIN  72  68  87 S21G29    29.85F
SIREN          DRIZZLE   71  69  92 SE13G20   29.76F
CUMBERLAND     LGT RAIN  68  68 100 SE20G28   29.83F
RICE LAKE      RAIN      69  67  94 SE15      29.89F
CHETEK         RAIN      69  69  98 SE14G20   29.90F
LADYSMITH      CLOUDY    72  64  78 S9        29.97F
EAU CLAIRE     RAIN      70  67  90 S12       29.95S FOG
MENOMONIE      HVY RAIN  72  71  96 SE17      29.91F
NEW RICHMOND   CLOUDY    72  70  95 SE14G26   29.80F
OSCEOLA        CLOUDY    73  73 100 SE15G21   29.82R
$$

WIZ003>005-009-010-017-018-281600-
NORTH CENTRAL WISCONSIN

CITY           SKY/WX    TMP DP  RH WIND       PRES   REMARKS
MANITOWISH WTR CLOUDY    70  64  80 S9        29.97F
ARBOR VITAE    CLOUDY    72  64  75 S9        29.98F
WOODRUFF       CLOUDY    72  64  75 S9        29.98F
RHINELANDER    CLOUDY    73  62  68 S9        30.01S
EAGLE RIVER    CLOUDY    72  61  67 S6        30.00S
LAND O LAKES   CLOUDY    73  61  65 S8G18     30.01S
PHILLIPS       CLOUDY    71  63  76 S10       29.97S
TOMAHAWK       CLOUDY    72  63  73 S6        30.01S
MEDFORD        CLOUDY    71  64  79 S10       30.01R
MERRILL        NOT AVBL
$$

WIZ029-030-035-036-043>047-281600-
CENTRAL WISCONSIN

CITY           SKY/WX    TMP DP  RH WIND       PRES   REMARKS
WAUSAU         PTSUNNY   78  63  59 S13       29.99S HX  80
MOSINEE        SUNNY     75  64  69 S9        30.01S
MARSHFIELD     CLOUDY    75  63  66 S7        30.01R
STEVENS POINT  CLOUDY    77  62  59 S13       30.01S
WAUPACA        PTSUNNY   80  65  60 S7        30.01S HX  82
WAUTOMA        PTSUNNY   80  66  62 S8        30.02R HX  82
WISC RAPIDS    CLOUDY    79  63  57 SW9       30.02R HX  80
CAMP DOUGLAS   CLOUDY    75  72  88 S6        30.00R
$$

WIZ011>013-019>022-031-037>040-048>050-281600-
NORTHEAST WISCONSIN

CITY           SKY/WX    TMP DP  RH WIND       PRES   REMARKS
ANTIGO         PTSUNNY   75  64  69 S12       30.04R
SHAWANO        MOSUNNY   81  66  60 S5        30.01R HX  83
OCONTO         MOSUNNY   79  66  64 SE8       30.00F HX  81
STURGEON BAY   MOSUNNY   79  63  57 S10       30.04S HX  80
GREEN BAY      SUNNY     81  67  62 S10       30.01S HX  83
MANITOWOC      RAIN      79  66  64 MISG      30.02S HX  81
APPLETON       PTSUNNY   79  63  57 S9        30.02R HX  80
CLINTONVILLE   PTSUNNY   79  64  61 S8        30.01R HX  81
OSHKOSH        MOSUNNY   82  64  54 S13       30.01R HX  83
$$

WIZ032>034-041-042-053>061-281600-
SOUTHWEST WISCONSIN

CITY           SKY/WX    TMP DP  RH WIND       PRES   REMARKS
LA CROSSE      RAIN      71  69  93 N5        29.97R FOG
SPARTA         HVY RAIN  70  65  85 S5        30.01R
VIROQUA        CLOUDY    69  69  99 S5        30.02R
BOSCOBEL       LGT RAIN  74  70  87 CALM      30.00R FOG
PRAIRIE DU CHI RAIN      71  68  90 E8        29.96F
PLATTEVILLE    CLOUDY    76  71  85 S3        30.02R
$$

WIZ056-057-062-063-064-067-068-281600-
SOUTH CENTRAL WISCONSIN

CITY           SKY/WX    TMP DP  RH WIND       PRES   REMARKS
REEDSBURG      MOSUNNY   77  66  68 S6        30.00R
BARABOO/DELLS  MOSUNNY   79  61  54 S7        30.00S HX  80
LONE ROCK      PTSUNNY   77  68  73 S3        30.01R
MINERAL POINT  PTSUNNY   77  70  78 S3        30.03R
MADISON        PTSUNNY   81  64  56 S13       30.00R HX  82
MIDDLETON      PTSUNNY   81  63  53 S14       30.02R HX  83
WATERTOWN      PTSUNNY   78  70  77 S7        30.00R HX  80
MONROE         MOSUNNY   79  68  69 S8        30.01R HX  81
JANESVILLE     SUNNY     82  66  57 S7        30.00R HX  85
$$

WIZ051-052-058>065-066-070>072-281600-
SOUTHEAST WISCONSIN

CITY           SKY/WX    TMP DP  RH WIND       PRES   REMARKS
MILWAUKEE      MOSUNNY   82  66  58 SE8       30.00R HX  84
WAUKESHA       SUNNY     81  61  50 MISG      30.03R HX  81
MILWAUKEE/TIMM SUNNY     82  61  47 S8        30.01R HX  83
RACINE         SUNNY     80  66  62 S10       30.02R HX  82
BURLINGTON     SUNNY     80  63  56 SE6       30.01R HX  81
KENOSHA        SUNNY     83  66  56 S9        30.00S HX  85
FOND DU LAC    MOSUNNY   83  66  56 S10       30.01R HX  85
SHEBOYGAN      SUNNY     81  66  60 S10       30.01S HX  83
WEST BEND      SUNNY     79  63  57 CALM      30.03R HX  80
JUNEAU           N/A     78  66  66 SE10      30.02R HX  80
$$

LSZ147-162-281600-
LAKE SUPERIOR

STATION/POSITION TIME  TEMP    WIND        PRES    WAVE
                       AIR SEA DIR/SP/G            HT/PER
                 (UTC) (F)     (DEG/KT/KT) (MB)    (FT/S)
W MID LAKE BUOY  1450   65 62  140/ 10/ 12 1011.6F   1/ 3
DEVILS ISLAND    1500   73     160/ 10/ 15 1010.1F
PORT WING        1240   74     150/  6/ 13 1010.8
SAXON HARBOR     1440   75                 1011.2F
$$

LMZ867-665-643>646-281600-
LAKE MICHIGAN

STATION/POSITION TIME  TEMP    WIND        PRES    WAVE
                       AIR SEA DIR/SP/G            HT/PER
                 (UTC) (F)     (DEG/KT/KT) (MB)    (FT/S)
CHAMBERS ISLAND  1400   79     160/  4/  7 1015.9S
S GREEN BAY BUOY 1500   77 76  160/  8/ 10 1017.3F
N MID LAKE BUOY  1450   71 70  190/  4/  4 1015.9F   0
NORTHPORT PIER   1400   76     150/  4/  9 1016.3R
SISTER BAY       1329   81     200/  7/  8   N/A
ALGOMA LAKESHORE 1412             CALM       N/A
KEWAUNEE LAKESHO 1400   70     160/  2/  3 1015.8R
SHEBOYGAN LAKESH 1500   72     140/ 10/ 10 1016.3R
PORT WASHINGTON  1440   76     120/  3/  4 1016.6S
ATWATER BUOY     1500   72     150/  6/  8 1017.4R
MILWAUKEE LAKESH 1400   72     130/  9/ 10   N/A
KENOSHA   LAKESH 1500   74     140/  6/  7 1015.6R
$$

TC  - TEMPERATURE IN CELSIUS
VSB - VISIBILITY IN STATUTE MILES
WCI - WIND CHILL INDEX
HX  - HEAT INDEX




USA.gov is the U.S. government's official web portal to all federal, state and local government web resources and services.